Starlink 4634

operational
NORAD ID: 53967 Int'l Des: 2022-125 Owner: SPXS Country: US Constellation: starlink
LEOCIRCULAR

Über Starlink 4634

Beschreibung wird geladen...

Live-Position

3D-Globus wird geladen...

Nächste Überflüge

Höhenverlauf

Altitude vs Time

uPlot chart will show altitude changes over time

Zweizeiliger Elementsatz

1 53967U 22125D 25352.89030763 .00001082 00000-0 86090-4 0 9993
2 53967 53.2166 226.8796 0001514 83.6487 276.4678 15.08837004177126
Epoch: 18. Dez. 2025 • Age: 8 hours

Aktueller Status

Höhe 539.9 km
Geschwindigkeit 7.59 km/s
Subsatellitenpunkt 5.34°N, 61.13°E
Startdatum 5. Okt. 2022
Alter 3.2 years
Typ internet

Technische Details

Klassifizierung Payload
Masse 305.00 kg
Trockenmasse 290.00 kg
Gesamtmasse 305.00 kg
Länge 0.20 m
Durchmesser 2.80 m
Spannweite 9.00 m
Form Box + pan
Hersteller SPXS
Bus-Typ Starlink
Phasenstatus In Orbit
Besitzer/Staat SPXS/US

Große Konstellationen

Loading constellations...